Time,TemperatureF,DewpointF,PressureIn,WindDirection,WindDirectionDegrees,WindSpeedMPH,WindSpeedGustMPH,Humidity,HourlyPrecipIn,Conditions,Clouds,dailyrainin,SoftwareType,DateUTC
2013-06-15 00:01:00,63.7,57.4,29.99,West,272,0.0,0.0,80,0.00,,,0.01,meteohub,2013-06-15 04:01:00,
2013-06-15 00:06:00,63.5,57.2,29.99,West,272,0.0,0.0,80,0.00,,,0.00,meteohub,2013-06-15 04:06:00,
2013-06-15 00:11:00,63.3,57.0,29.99,West,272,0.0,0.0,80,0.00,,,0.00,meteohub,2013-06-15 04:11:00,
2013-06-15 00:16:00,63.1,56.8,29.99,West,272,0.0,0.0,80,0.00,,,0.00,meteohub,2013-06-15 04:16:00,
2013-06-15 00:21:00,63.1,57.2,29.99,West,272,0.0,0.0,81,0.00,,,0.00,meteohub,2013-06-15 04:21:00,
2013-06-15 00:27:00,63.0,57.0,29.99,West,272,0.0,0.0,81,0.00,,,0.00,meteohub,2013-06-15 04:27:00,
2013-06-15 00:32:00,63.0,57.4,29.99,West,272,0.0,0.0,82,0.00,,,0.00,meteohub,2013-06-15 04:32:00,
2013-06-15 00:37:00,62.8,57.2,29.99,West,272,0.0,0.0,82,0.00,,,0.00,meteohub,2013-06-15 04:37:00,
2013-06-15 00:42:00,62.8,57.2,29.99,West,272,0.0,0.0,82,0.00,,,0.00,meteohub,2013-06-15 04:42:00,
2013-06-15 00:47:00,62.4,56.8,29.99,West,272,0.0,0.0,82,0.00,,,0.00,meteohub,2013-06-15 04:47:00,
2013-06-15 00:52:00,62.4,57.2,29.99,West,272,0.0,0.0,83,0.00,,,0.00,meteohub,2013-06-15 04:52:00,
2013-06-15 00:57:00,62.4,57.6,29.99,West,272,0.0,0.0,84,0.00,,,0.00,meteohub,2013-06-15 04:57:00,
2013-06-15 01:02:00,62.4,57.6,29.99,West,272,0.0,0.0,84,0.00,,,0.00,meteohub,2013-06-15 05:02:00,
2013-06-15 01:07:00,62.2,57.0,29.99,West,272,0.0,0.0,83,0.00,,,0.00,meteohub,2013-06-15 05:07:00,
2013-06-15 01:12:00,62.2,57.0,29.99,West,272,0.0,0.0,83,0.00,,,0.00,meteohub,2013-06-15 05:12:00,
2013-06-15 01:17:00,62.1,56.8,29.99,West,272,0.0,0.0,83,0.00,,,0.00,meteohub,2013-06-15 05:17:00,
2013-06-15 01:22:00,62.1,57.2,29.99,West,272,0.0,0.0,84,0.00,,,0.00,meteohub,2013-06-15 05:22:00,
2013-06-15 01:27:00,61.9,57.0,29.99,West,272,0.0,0.0,84,0.00,,,0.00,meteohub,2013-06-15 05:27:00,
2013-06-15 01:32:00,61.9,57.0,30.00,West,272,0.0,0.0,84,0.00,,,0.00,meteohub,2013-06-15 05:32:00,
2013-06-15 01:37:00,61.7,56.8,30.00,West,272,0.0,1.0,84,0.00,,,0.00,meteohub,2013-06-15 05:37:00,
2013-06-15 01:42:00,61.5,57.0,30.00,West,272,0.0,1.0,85,0.00,,,0.00,meteohub,2013-06-15 05:42:00,
2013-06-15 01:47:00,61.5,57.0,30.00,West,272,0.0,1.0,85,0.00,,,0.00,meteohub,2013-06-15 05:47:00,
2013-06-15 01:52:00,61.5,57.0,30.00,West,272,0.0,0.0,85,0.00,,,0.00,meteohub,2013-06-15 05:52:00,
2013-06-15 01:57:00,61.3,56.8,30.00,West,272,0.0,0.0,85,0.00,,,0.00,meteohub,2013-06-15 05:57:00,
2013-06-15 02:02:00,61.3,56.8,30.00,West,272,0.0,0.0,85,0.00,,,0.00,meteohub,2013-06-15 06:02:00,
2013-06-15 02:07:00,61.3,56.8,30.00,West,272,0.0,0.0,85,0.00,,,0.00,meteohub,2013-06-15 06:07:00,
2013-06-15 02:12:00,61.2,57.0,30.00,West,272,0.0,1.0,86,0.00,,,0.00,meteohub,2013-06-15 06:12:00,
2013-06-15 02:17:00,61.2,57.0,30.00,West,272,0.0,1.0,86,0.00,,,0.00,meteohub,2013-06-15 06:17:00,
2013-06-15 02:22:00,61.2,57.0,30.00,West,272,0.0,1.0,86,0.00,,,0.00,meteohub,2013-06-15 06:22:00,
2013-06-15 02:27:00,61.2,57.0,30.00,West,272,0.0,0.0,86,0.00,,,0.00,meteohub,2013-06-15 06:27:00,
2013-06-15 02:32:00,61.0,56.8,30.00,West,272,0.0,0.0,86,0.00,,,0.00,meteohub,2013-06-15 06:32:00,
2013-06-15 02:37:00,61.0,56.8,30.00,West,272,0.0,0.0,86,0.00,,,0.00,meteohub,2013-06-15 06:37:00,
2013-06-15 02:42:00,61.0,56.8,30.00,West,272,0.0,0.0,86,0.00,,,0.00,meteohub,2013-06-15 06:42:00,
2013-06-15 02:47:00,60.8,56.7,30.00,West,272,0.0,0.0,86,0.00,,,0.00,meteohub,2013-06-15 06:47:00,
2013-06-15 02:52:00,60.6,56.5,30.00,West,272,0.0,0.0,86,0.00,,,0.00,meteohub,2013-06-15 06:52:00,
2013-06-15 02:57:00,60.6,56.7,30.00,West,272,0.0,0.0,87,0.00,,,0.00,meteohub,2013-06-15 06:57:00,
2013-06-15 03:02:00,60.6,56.7,30.00,West,272,0.0,0.0,87,0.00,,,0.00,meteohub,2013-06-15 07:02:00,
2013-06-15 03:07:00,60.4,56.5,30.00,West,272,0.0,0.0,87,0.00,,,0.00,meteohub,2013-06-15 07:07:00,
2013-06-15 03:12:00,60.4,56.5,30.00,West,272,0.0,0.0,87,0.00,,,0.00,meteohub,2013-06-15 07:12:00,
2013-06-15 03:17:00,60.4,56.5,30.00,West,272,0.0,0.0,87,0.00,,,0.00,meteohub,2013-06-15 07:17:00,
2013-06-15 03:22:00,60.4,56.5,30.00,West,272,0.0,0.0,87,0.00,,,0.00,meteohub,2013-06-15 07:22:00,
2013-06-15 03:27:00,60.3,56.3,30.00,West,272,0.0,0.0,87,0.00,,,0.00,meteohub,2013-06-15 07:27:00,
2013-06-15 03:32:00,60.3,56.3,30.00,West,272,0.0,0.0,87,0.00,,,0.00,meteohub,2013-06-15 07:32:00,
2013-06-15 03:37:00,60.3,56.7,30.00,West,272,0.0,0.0,88,0.00,,,0.00,meteohub,2013-06-15 07:37:00,
2013-06-15 03:42:00,60.1,56.5,30.00,West,272,0.0,0.0,88,0.00,,,0.00,meteohub,2013-06-15 07:42:00,
2013-06-15 03:47:00,60.1,56.5,30.00,West,272,0.0,0.0,88,0.00,,,0.00,meteohub,2013-06-15 07:47:00,
2013-06-15 03:52:00,60.1,56.5,30.01,West,272,0.0,0.0,88,0.00,,,0.00,meteohub,2013-06-15 07:52:00,
2013-06-15 03:57:00,59.9,56.3,30.01,West,272,0.0,0.0,88,0.00,,,0.00,meteohub,2013-06-15 07:57:00,
2013-06-15 04:02:00,59.7,56.1,30.01,West,272,0.0,0.0,88,0.00,,,0.00,meteohub,2013-06-15 08:02:00,
2013-06-15 04:07:00,59.7,56.1,30.01,West,272,0.0,0.0,88,0.00,,,0.00,meteohub,2013-06-15 08:07:00,
2013-06-15 04:12:00,59.7,56.5,30.01,West,272,0.0,0.0,89,0.00,,,0.00,meteohub,2013-06-15 08:12:00,
2013-06-15 04:17:00,59.5,56.3,30.00,West,272,0.0,0.0,89,0.00,,,0.00,meteohub,2013-06-15 08:17:00,
2013-06-15 04:22:00,59.5,56.3,30.00,West,272,0.0,0.0,89,0.00,,,0.00,meteohub,2013-06-15 08:22:00,
2013-06-15 04:27:00,59.5,56.3,30.00,West,272,0.0,0.0,89,0.00,,,0.00,meteohub,2013-06-15 08:27:00,
2013-06-15 04:32:00,59.5,56.3,30.00,West,272,0.0,0.0,89,0.00,,,0.00,meteohub,2013-06-15 08:32:00,
2013-06-15 04:37:00,59.5,56.3,30.00,West,272,0.0,0.0,89,0.00,,,0.00,meteohub,2013-06-15 08:37:00,
2013-06-15 04:42:00,59.5,56.3,30.00,West,272,0.0,0.0,89,0.00,,,0.00,meteohub,2013-06-15 08:42:00,
2013-06-15 04:47:00,59.5,56.3,30.00,West,272,0.0,0.0,89,0.00,,,0.00,meteohub,2013-06-15 08:47:00,
2013-06-15 04:52:00,59.5,56.3,30.00,West,272,0.0,0.0,89,0.00,,,0.00,meteohub,2013-06-15 08:52:00,
2013-06-15 04:57:00,59.4,56.1,30.00,West,272,0.0,0.0,89,0.00,,,0.00,meteohub,2013-06-15 08:57:00,
2013-06-15 05:02:00,59.4,56.1,30.00,West,272,0.0,0.0,89,0.00,,,0.00,meteohub,2013-06-15 09:02:00,
2013-06-15 05:07:00,59.4,56.5,30.00,West,272,0.0,0.0,90,0.00,,,0.00,meteohub,2013-06-15 09:07:00,
2013-06-15 05:12:00,59.2,55.9,30.00,West,272,0.0,0.0,89,0.00,,,0.00,meteohub,2013-06-15 09:12:00,
2013-06-15 05:17:00,59.2,56.3,30.01,West,272,0.0,0.0,90,0.00,,,0.00,meteohub,2013-06-15 09:17:00,
2013-06-15 05:22:00,59.0,56.1,30.01,West,272,0.0,0.0,90,0.00,,,0.00,meteohub,2013-06-15 09:22:00,
2013-06-15 05:27:00,58.8,56.1,30.01,West,272,0.0,0.0,91,0.00,,,0.00,meteohub,2013-06-15 09:27:00,
2013-06-15 05:32:00,58.8,56.1,30.02,West,272,0.0,0.0,91,0.00,,,0.00,meteohub,2013-06-15 09:32:00,
2013-06-15 05:37:00,58.8,56.1,30.02,West,272,0.0,0.0,91,0.00,,,0.00,meteohub,2013-06-15 09:37:00,
2013-06-15 05:42:00,58.6,55.9,30.02,West,272,0.0,0.0,91,0.00,,,0.00,meteohub,2013-06-15 09:42:00,
2013-06-15 05:47:00,58.5,55.8,30.03,West,272,0.0,0.0,91,0.00,,,0.00,meteohub,2013-06-15 09:47:00,
2013-06-15 05:52:00,58.5,55.8,30.03,West,272,0.0,0.0,91,0.00,,,0.00,meteohub,2013-06-15 09:52:00,
2013-06-15 05:57:00,58.3,55.6,30.03,West,272,0.0,0.0,91,0.00,,,0.00,meteohub,2013-06-15 09:57:00,
2013-06-15 06:02:00,58.1,55.4,30.03,West,272,0.0,0.0,91,0.00,,,0.00,meteohub,2013-06-15 10:02:00,
2013-06-15 06:07:00,58.1,55.8,30.03,West,272,0.0,0.0,92,0.00,,,0.00,meteohub,2013-06-15 10:07:00,
2013-06-15 06:12:00,57.9,55.6,30.04,West,272,0.0,0.0,92,0.00,,,0.00,meteohub,2013-06-15 10:12:00,
2013-06-15 06:17:00,58.1,55.8,30.05,WNW,282,0.0,0.0,92,0.00,,,0.00,meteohub,2013-06-15 10:17:00,
2013-06-15 06:22:00,57.9,55.6,30.05,WNW,282,0.0,0.0,92,0.00,,,0.00,meteohub,2013-06-15 10:22:00,
2013-06-15 06:27:00,57.9,55.6,30.05,WNW,282,0.0,0.0,92,0.00,,,0.00,meteohub,2013-06-15 10:27:00,
2013-06-15 06:32:00,57.9,55.9,30.05,West,281,0.0,0.0,93,0.00,,,0.00,meteohub,2013-06-15 10:32:00,
2013-06-15 06:37:00,57.9,55.9,30.06,West,281,0.0,0.0,93,0.00,,,0.00,meteohub,2013-06-15 10:37:00,
2013-06-15 06:42:00,58.1,56.1,30.06,West,281,0.0,0.0,93,0.00,,,0.00,meteohub,2013-06-15 10:42:00,
2013-06-15 06:47:00,58.3,56.5,30.06,West,281,0.0,0.0,94,0.00,,,0.00,meteohub,2013-06-15 10:47:00,
2013-06-15 06:52:00,58.5,56.5,30.06,West,281,0.0,0.0,93,0.00,,,0.00,meteohub,2013-06-15 10:52:00,
2013-06-15 06:57:00,58.5,56.5,30.06,West,281,0.0,0.0,93,0.00,,,0.00,meteohub,2013-06-15 10:57:00,
2013-06-15 07:02:00,58.6,56.7,30.06,West,281,0.0,0.0,93,0.00,,,0.00,meteohub,2013-06-15 11:02:00,
2013-06-15 07:07:00,58.8,56.8,30.06,West,281,0.0,0.0,93,0.00,,,0.00,meteohub,2013-06-15 11:07:00,
2013-06-15 07:12:00,59.0,57.0,30.06,West,281,0.0,2.0,93,0.00,,,0.00,meteohub,2013-06-15 11:12:00,
2013-06-15 07:17:00,59.4,57.4,30.06,West,281,0.0,2.0,93,0.00,,,0.00,meteohub,2013-06-15 11:17:00,
2013-06-15 07:22:00,59.5,57.6,30.07,West,281,0.0,2.0,93,0.00,,,0.00,meteohub,2013-06-15 11:22:00,
2013-06-15 07:27:00,59.7,57.7,30.07,West,281,1.0,1.0,93,0.00,,,0.00,meteohub,2013-06-15 11:27:00,
2013-06-15 07:32:00,60.1,57.7,30.07,West,281,0.0,2.0,92,0.00,,,0.00,meteohub,2013-06-15 11:32:00,
2013-06-15 07:37:00,60.4,58.1,30.07,West,281,0.0,2.0,92,0.00,,,0.00,meteohub,2013-06-15 11:37:00,
2013-06-15 07:42:00,60.8,57.9,30.08,NNW,334,0.0,2.0,90,0.00,,,0.00,meteohub,2013-06-15 11:42:00,
2013-06-15 07:47:00,61.3,58.1,30.08,NNW,333,0.0,3.0,89,0.00,,,0.00,meteohub,2013-06-15 11:47:00,
2013-06-15 07:52:00,62.1,58.1,30.08,NNW,333,0.0,3.0,87,0.00,,,0.00,meteohub,2013-06-15 11:52:00,
2013-06-15 07:57:00,62.8,58.5,30.08,WSW,248,0.0,3.0,86,0.00,,,0.00,meteohub,2013-06-15 11:57:00,
2013-06-15 08:02:00,63.3,58.5,30.08,North,0,2.0,3.0,84,0.00,,,0.00,meteohub,2013-06-15 12:02:00,
2013-06-15 08:07:00,63.9,58.6,30.08,NNW,333,0.0,3.0,83,0.00,,,0.00,meteohub,2013-06-15 12:07:00,
2013-06-15 08:12:00,64.2,58.3,30.08,SSW,211,0.0,3.0,81,0.00,,,0.00,meteohub,2013-06-15 12:12:00,
2013-06-15 08:17:00,64.9,59.0,30.09,WNW,286,1.0,4.0,81,0.00,,,0.00,meteohub,2013-06-15 12:17:00,
2013-06-15 08:22:00,65.3,59.4,30.09,WNW,287,0.0,4.0,81,0.00,,,0.00,meteohub,2013-06-15 12:22:00,
2013-06-15 08:27:00,65.8,58.8,30.09,NNW,346,2.0,4.0,78,0.00,,,0.00,meteohub,2013-06-15 12:27:00,
2013-06-15 08:32:00,66.6,59.2,30.09,NNW,341,1.0,3.0,77,0.00,,,0.00,meteohub,2013-06-15 12:32:00,
2013-06-15 08:37:00,67.1,59.7,30.09,SW,219,0.0,4.0,77,0.00,,,0.00,meteohub,2013-06-15 12:37:00,
2013-06-15 08:42:00,67.6,59.4,30.09,WNW,301,0.0,4.0,75,0.00,,,0.00,meteohub,2013-06-15 12:42:00,
2013-06-15 08:47:00,68.2,60.3,30.09,WNW,288,0.0,4.0,76,0.00,,,0.00,meteohub,2013-06-15 12:47:00,
2013-06-15 08:52:00,68.7,59.7,30.09,NW,321,0.0,4.0,73,0.00,,,0.00,meteohub,2013-06-15 12:52:00,
2013-06-15 08:57:00,69.3,60.3,30.09,WNW,299,1.0,4.0,73,0.00,,,0.00,meteohub,2013-06-15 12:57:00,
2013-06-15 09:02:00,69.6,60.3,30.09,NW,316,0.0,4.0,72,0.00,,,0.00,meteohub,2013-06-15 13:02:00,
2013-06-15 09:07:00,70.2,60.6,30.09,South,181,0.0,4.0,72,0.00,,,0.00,meteohub,2013-06-15 13:07:00,
2013-06-15 09:12:00,70.5,61.0,30.09,North,350,0.0,4.0,72,0.00,,,0.00,meteohub,2013-06-15 13:12:00,
2013-06-15 09:17:00,70.5,59.9,30.08,North,355,1.0,5.0,69,0.00,,,0.00,meteohub,2013-06-15 13:17:00,
2013-06-15 09:22:00,70.5,60.6,30.09,West,267,4.0,5.0,71,0.00,,,0.00,meteohub,2013-06-15 13:22:00,
2013-06-15 09:27:00,71.1,59.9,30.09,NNW,346,0.0,7.0,68,0.00,,,0.00,meteohub,2013-06-15 13:27:00,
2013-06-15 09:32:00,71.2,59.7,30.09,North,355,2.0,7.0,67,0.00,,,0.00,meteohub,2013-06-15 13:32:00,
2013-06-15 09:37:00,71.2,61.0,30.09,SSW,201,0.0,7.0,70,0.00,,,0.00,meteohub,2013-06-15 13:37:00,
2013-06-15 09:42:00,71.8,61.0,30.09,North,355,1.0,7.0,69,0.00,,,0.00,meteohub,2013-06-15 13:42:00,
2013-06-15 09:47:00,72.1,61.0,30.09,North,355,1.0,7.0,68,0.00,,,0.00,meteohub,2013-06-15 13:47:00,
2013-06-15 09:52:00,72.5,61.0,30.09,NW,321,3.0,4.0,67,0.00,,,0.00,meteohub,2013-06-15 13:52:00,
2013-06-15 09:57:00,72.9,59.9,30.09,NW,323,1.0,4.0,64,0.00,,,0.00,meteohub,2013-06-15 13:57:00,
2013-06-15 10:02:00,72.9,59.9,30.09,North,0,1.0,5.0,64,0.00,,,0.00,meteohub,2013-06-15 14:02:00,
2013-06-15 10:07:00,73.2,59.4,30.09,North,355,5.0,9.0,62,0.00,,,0.00,meteohub,2013-06-15 14:07:00,
2013-06-15 10:12:00,73.2,60.8,30.09,NNW,333,1.0,9.0,65,0.00,,,0.00,meteohub,2013-06-15 14:12:00,
2013-06-15 10:17:00,73.8,59.9,30.09,North,351,1.0,9.0,62,0.00,,,0.00,meteohub,2013-06-15 14:17:00,
2013-06-15 10:22:00,74.3,60.8,30.09,NNW,329,3.0,7.0,63,0.00,,,0.00,meteohub,2013-06-15 14:22:00,
2013-06-15 10:27:00,74.3,59.9,30.09,WNW,300,2.0,6.0,61,0.00,,,0.00,meteohub,2013-06-15 14:27:00,
2013-06-15 10:32:00,74.5,60.1,30.09,NNW,327,0.0,6.0,61,0.00,,,0.00,meteohub,2013-06-15 14:32:00,
2013-06-15 10:37:00,74.8,60.4,30.09,NNW,334,0.0,6.0,61,0.00,,,0.00,meteohub,2013-06-15 14:37:00,
2013-06-15 10:42:00,75.4,61.9,30.08,WSW,248,2.0,6.0,63,0.00,,,0.00,meteohub,2013-06-15 14:42:00,
2013-06-15 10:47:00,75.2,61.3,30.08,NNW,331,1.0,4.0,62,0.00,,,0.00,meteohub,2013-06-15 14:47:00,
2013-06-15 10:52:00,75.2,60.4,30.08,North,350,2.0,7.0,60,0.00,,,0.00,meteohub,2013-06-15 14:52:00,
2013-06-15 10:57:00,75.4,60.4,30.08,NW,317,2.0,7.0,60,0.00,,,0.00,meteohub,2013-06-15 14:57:00,
2013-06-15 11:02:00,75.9,61.5,30.08,SE,142,1.0,6.0,61,0.00,,,0.00,meteohub,2013-06-15 15:02:00,
2013-06-15 11:07:00,76.6,60.8,30.08,NW,318,2.0,9.0,58,0.00,,,0.00,meteohub,2013-06-15 15:07:00,
2013-06-15 11:12:00,76.8,63.3,30.07,NNW,346,4.0,9.0,63,0.00,,,0.00,meteohub,2013-06-15 15:12:00,
2013-06-15 11:17:00,76.8,61.0,30.08,NNW,339,3.0,9.0,58,0.00,,,0.00,meteohub,2013-06-15 15:17:00,
2013-06-15 11:22:00,76.5,59.5,30.07,WSW,248,1.0,6.0,56,0.00,,,0.00,meteohub,2013-06-15 15:22:00,
2013-06-15 11:27:00,77.0,60.1,30.07,NNW,327,0.0,6.0,56,0.00,,,0.00,meteohub,2013-06-15 15:27:00,
2013-06-15 11:32:00,77.2,61.7,30.07,NW,323,1.0,5.0,59,0.00,,,0.00,meteohub,2013-06-15 15:32:00,
2013-06-15 11:37:00,77.4,61.3,30.07,North,355,3.0,5.0,58,0.00,,,0.00,meteohub,2013-06-15 15:37:00,
2013-06-15 11:42:00,77.4,60.4,30.06,NW,305,0.0,5.0,56,0.00,,,0.00,meteohub,2013-06-15 15:42:00,
2013-06-15 11:47:00,77.5,59.0,30.07,WSW,245,0.0,7.0,53,0.00,,,0.00,meteohub,2013-06-15 15:47:00,
2013-06-15 11:52:00,77.7,58.6,30.07,NNW,346,2.0,7.0,52,0.00,,,0.00,meteohub,2013-06-15 15:52:00,
2013-06-15 11:57:00,77.5,60.1,30.07,NNW,333,3.0,7.0,55,0.00,,,0.00,meteohub,2013-06-15 15:57:00,
2013-06-15 12:02:00,77.7,58.6,30.07,North,355,1.0,7.0,52,0.00,,,0.00,meteohub,2013-06-15 16:02:00,
2013-06-15 12:07:00,77.7,59.2,30.07,NW,307,1.0,7.0,53,0.00,,,0.00,meteohub,2013-06-15 16:07:00,
2013-06-15 12:12:00,77.7,59.2,30.07,NNW,340,1.0,6.0,53,0.00,,,0.00,meteohub,2013-06-15 16:12:00,
2013-06-15 12:17:00,77.9,61.5,30.07,West,270,3.0,5.0,57,0.00,,,0.00,meteohub,2013-06-15 16:17:00,
2013-06-15 12:22:00,78.4,61.0,30.07,NNW,339,3.0,5.0,55,0.00,,,0.00,meteohub,2013-06-15 16:22:00,
2013-06-15 12:27:00,79.0,61.5,30.07,North,10,2.0,5.0,55,0.00,,,0.00,meteohub,2013-06-15 16:27:00,
2013-06-15 12:32:00,79.5,61.3,30.07,NW,321,2.0,5.0,54,0.00,,,0.00,meteohub,2013-06-15 16:32:00,
2013-06-15 12:37:00,79.5,60.4,30.07,SW,226,0.0,5.0,52,0.00,,,0.00,meteohub,2013-06-15 16:37:00,
2013-06-15 12:42:00,79.3,60.3,30.06,WNW,297,0.0,7.0,52,0.00,,,0.00,meteohub,2013-06-15 16:42:00,
2013-06-15 12:47:00,79.3,62.2,30.06,WNW,282,2.0,7.0,56,0.00,,,0.00,meteohub,2013-06-15 16:47:00,
2013-06-15 12:52:00,79.2,59.5,30.06,WSW,251,0.0,5.0,51,0.00,,,0.00,meteohub,2013-06-15 16:52:00,
2013-06-15 12:57:00,79.3,61.7,30.06,West,281,1.0,6.0,55,0.00,,,0.00,meteohub,2013-06-15 16:57:00,
2013-06-15 13:02:00,79.2,62.1,30.06,NW,310,2.0,6.0,56,0.00,,,0.00,meteohub,2013-06-15 17:02:00,
2013-06-15 13:07:00,79.2,60.1,30.06,WSW,239,0.0,6.0,52,0.00,,,0.00,meteohub,2013-06-15 17:07:00,
2013-06-15 13:12:00,79.3,60.3,30.06,NW,306,1.0,6.0,52,0.00,,,0.00,meteohub,2013-06-15 17:12:00,
2013-06-15 13:17:00,79.3,60.3,30.05,NW,311,1.0,5.0,52,0.00,,,0.00,meteohub,2013-06-15 17:17:00,
2013-06-15 13:22:00,79.5,61.3,30.05,NE,53,1.0,5.0,54,0.00,,,0.00,meteohub,2013-06-15 17:22:00,
2013-06-15 13:27:00,79.3,59.7,30.05,WNW,295,0.0,5.0,51,0.00,,,0.00,meteohub,2013-06-15 17:27:00,
2013-06-15 13:32:00,79.5,63.5,30.05,WSW,247,0.0,5.0,58,0.00,,,0.00,meteohub,2013-06-15 17:32:00,
2013-06-15 13:37:00,79.9,58.5,30.05,NNW,336,0.0,5.0,48,0.00,,,0.00,meteohub,2013-06-15 17:37:00,
2013-06-15 13:42:00,79.9,60.1,30.05,NNW,342,1.0,5.0,51,0.00,,,0.00,meteohub,2013-06-15 17:42:00,
2013-06-15 13:47:00,79.7,58.8,30.04,NW,315,7.0,7.0,49,0.00,,,0.00,meteohub,2013-06-15 17:47:00,
2013-06-15 13:52:00,79.5,58.1,30.04,NW,324,3.0,7.0,48,0.00,,,0.00,meteohub,2013-06-15 17:52:00,
2013-06-15 13:57:00,79.2,59.0,30.04,WNW,288,3.0,9.0,50,0.00,,,0.00,meteohub,2013-06-15 17:57:00,
2013-06-15 14:02:00,79.0,57.6,30.04,NW,308,1.0,9.0,48,0.00,,,0.00,meteohub,2013-06-15 18:02:00,
2013-06-15 14:07:00,79.3,57.4,30.04,SE,132,3.0,7.0,47,0.00,,,0.00,meteohub,2013-06-15 18:07:00,
2013-06-15 14:12:00,79.5,56.8,30.03,NNW,345,2.0,6.0,46,0.00,,,0.00,meteohub,2013-06-15 18:12:00,
2013-06-15 14:17:00,79.2,59.0,30.03,NW,312,3.0,6.0,50,0.00,,,0.00,meteohub,2013-06-15 18:17:00,
2013-06-15 14:22:00,79.2,60.1,30.03,SSE,154,3.0,6.0,52,0.00,,,0.00,meteohub,2013-06-15 18:22:00,
2013-06-15 14:27:00,79.5,59.7,30.03,West,269,0.0,6.0,51,0.00,,,0.00,meteohub,2013-06-15 18:27:00,
2013-06-15 14:32:00,79.9,59.5,30.03,NNW,332,2.0,4.0,50,0.00,,,0.00,meteohub,2013-06-15 18:32:00,
2013-06-15 14:37:00,79.9,57.9,30.03,NNW,333,0.0,4.0,47,0.00,,,0.00,meteohub,2013-06-15 18:37:00,
2013-06-15 14:42:00,79.9,57.2,30.03,NNW,335,1.0,5.0,46,0.00,,,0.00,meteohub,2013-06-15 18:42:00,
2013-06-15 14:47:00,79.3,58.5,30.03,North,0,1.0,5.0,49,0.00,,,0.00,meteohub,2013-06-15 18:47:00,
2013-06-15 14:52:00,79.5,58.1,30.02,WSW,253,2.0,5.0,48,0.00,,,0.00,meteohub,2013-06-15 18:52:00,
2013-06-15 14:57:00,79.5,58.6,30.02,South,187,0.0,6.0,49,0.00,,,0.00,meteohub,2013-06-15 18:57:00,
2013-06-15 15:02:00,80.1,62.4,30.03,WNW,282,3.0,6.0,55,0.00,,,0.00,meteohub,2013-06-15 19:02:00,
2013-06-15 15:07:00,80.2,58.1,30.02,West,262,0.0,6.0,47,0.00,,,0.00,meteohub,2013-06-15 19:07:00,
2013-06-15 15:12:00,79.9,59.0,30.02,NW,306,2.0,6.0,49,0.00,,,0.00,meteohub,2013-06-15 19:12:00,
2013-06-15 15:17:00,79.9,57.9,30.02,WNW,292,0.0,6.0,47,0.00,,,0.00,meteohub,2013-06-15 19:17:00,
2013-06-15 15:22:00,79.7,57.7,30.03,NNW,334,1.0,8.0,47,0.00,,,0.00,meteohub,2013-06-15 19:22:00,
2013-06-15 15:27:00,79.7,58.3,30.03,North,5,0.0,8.0,48,0.00,,,0.00,meteohub,2013-06-15 19:27:00,
2013-06-15 15:32:00,79.7,56.5,30.03,North,350,4.0,8.0,45,0.00,,,0.00,meteohub,2013-06-15 19:32:00,
2013-06-15 15:37:00,79.7,56.5,30.03,SSE,159,1.0,5.0,45,0.00,,,0.00,meteohub,2013-06-15 19:37:00,
2013-06-15 15:42:00,80.1,59.2,30.02,West,268,1.0,6.0,49,0.00,,,0.00,meteohub,2013-06-15 19:42:00,
2013-06-15 15:46:00,80.2,59.4,30.02,WNW,303,1.0,6.0,49,0.00,,,0.00,meteohub,2013-06-15 19:46:00,
2013-06-15 15:52:00,80.6,57.4,30.02,West,281,1.0,6.0,45,0.00,,,0.00,meteohub,2013-06-15 19:52:00,
2013-06-15 15:57:00,80.4,59.5,30.02,West,275,3.0,4.0,49,0.00,,,0.00,meteohub,2013-06-15 19:57:00,
2013-06-15 16:02:00,80.2,58.8,30.02,NW,307,0.0,6.0,48,0.00,,,0.00,meteohub,2013-06-15 20:02:00,
2013-06-15 16:07:00,80.2,59.9,30.02,NNE,13,0.0,7.0,50,0.00,,,0.00,meteohub,2013-06-15 20:07:00,
2013-06-15 16:12:00,80.2,57.6,30.02,NNW,344,2.0,7.0,46,0.00,,,0.00,meteohub,2013-06-15 20:12:00,
2013-06-15 16:17:00,80.1,58.1,30.02,NNW,333,5.0,6.0,47,0.00,,,0.00,meteohub,2013-06-15 20:17:00,
2013-06-15 16:22:00,80.2,57.6,30.02,West,281,2.0,8.0,46,0.00,,,0.00,meteohub,2013-06-15 20:22:00,
2013-06-15 16:27:00,80.6,57.4,30.01,NNW,336,3.0,8.0,45,0.00,,,0.00,meteohub,2013-06-15 20:27:00,
2013-06-15 16:32:00,80.2,55.8,30.01,NNW,345,0.0,8.0,43,0.00,,,0.00,meteohub,2013-06-15 20:32:00,
2013-06-15 16:37:00,79.7,58.8,30.01,NW,310,1.0,5.0,49,0.00,,,0.00,meteohub,2013-06-15 20:37:00,
2013-06-15 16:42:00,79.9,61.2,30.01,WSW,252,1.0,4.0,53,0.00,,,0.00,meteohub,2013-06-15 20:42:00,
2013-06-15 16:47:00,79.9,57.2,30.01,WSW,258,1.0,4.0,46,0.00,,,0.00,meteohub,2013-06-15 20:47:00,
2013-06-15 16:52:00,79.9,56.7,30.01,North,9,1.0,5.0,45,0.00,,,0.00,meteohub,2013-06-15 20:52:00,
2013-06-15 16:57:00,80.4,60.1,30.02,North,9,1.0,5.0,50,0.00,,,0.00,meteohub,2013-06-15 20:57:00,
2013-06-15 17:02:00,81.0,57.0,30.02,NNW,330,0.0,4.0,44,0.00,,,0.00,meteohub,2013-06-15 21:02:00,
2013-06-15 17:07:00,81.0,58.8,30.02,WNW,302,2.0,4.0,47,0.00,,,0.00,meteohub,2013-06-15 21:07:00,
2013-06-15 17:12:00,80.4,56.5,30.01,NNW,347,2.0,5.0,44,0.00,,,0.00,meteohub,2013-06-15 21:12:00,
2013-06-15 17:16:00,80.4,59.0,30.01,WNW,290,2.0,5.0,48,0.00,,,0.00,meteohub,2013-06-15 21:16:00,
2013-06-15 17:22:00,80.4,60.1,30.01,NW,309,1.0,5.0,50,0.00,,,0.00,meteohub,2013-06-15 21:22:00,
2013-06-15 17:27:00,80.8,61.0,30.01,WNW,297,1.0,4.0,51,0.00,,,0.00,meteohub,2013-06-15 21:27:00,
2013-06-15 17:32:00,81.0,59.4,30.01,WNW,291,1.0,5.0,48,0.00,,,0.00,meteohub,2013-06-15 21:32:00,
2013-06-15 17:37:00,81.0,57.6,30.01,West,279,0.0,6.0,45,0.00,,,0.00,meteohub,2013-06-15 21:37:00,
2013-06-15 17:42:00,81.1,59.5,30.01,NW,317,2.0,6.0,48,0.00,,,0.00,meteohub,2013-06-15 21:42:00,
2013-06-15 17:47:00,81.1,57.7,30.01,North,349,2.0,6.0,45,0.00,,,0.00,meteohub,2013-06-15 21:47:00,
2013-06-15 17:52:00,81.0,59.4,30.01,NW,321,0.0,4.0,48,0.00,,,0.00,meteohub,2013-06-15 21:52:00,
2013-06-15 17:57:00,81.0,58.8,30.01,West,271,0.0,4.0,47,0.00,,,0.00,meteohub,2013-06-15 21:57:00,
2013-06-15 18:02:00,81.1,59.0,30.00,WNW,301,0.0,4.0,47,0.00,,,0.00,meteohub,2013-06-15 22:02:00,
2013-06-15 18:07:00,81.0,57.0,30.01,NNW,329,0.0,4.0,44,0.00,,,0.00,meteohub,2013-06-15 22:07:00,
2013-06-15 18:12:00,81.0,58.3,30.00,NNW,329,0.0,4.0,46,0.00,,,0.00,meteohub,2013-06-15 22:12:00,
2013-06-15 18:17:00,80.8,59.2,30.00,WSW,250,1.0,4.0,48,0.00,,,0.00,meteohub,2013-06-15 22:17:00,
2013-06-15 18:22:00,80.8,58.6,30.01,North,350,1.0,4.0,47,0.00,,,0.00,meteohub,2013-06-15 22:22:00,
2013-06-15 18:27:00,80.4,58.3,30.01,West,268,0.0,5.0,47,0.00,,,0.00,meteohub,2013-06-15 22:27:00,
2013-06-15 18:32:00,79.9,57.2,30.01,NW,326,2.0,5.0,46,0.00,,,0.00,meteohub,2013-06-15 22:32:00,
2013-06-15 18:37:00,79.5,57.6,30.01,West,278,0.0,5.0,47,0.00,,,0.00,meteohub,2013-06-15 22:37:00,
2013-06-15 18:42:00,79.2,56.7,30.01,NNW,337,3.0,4.0,46,0.00,,,0.00,meteohub,2013-06-15 22:42:00,
2013-06-15 18:47:00,79.0,58.1,30.00,WNW,288,1.0,4.0,49,0.00,,,0.00,meteohub,2013-06-15 22:47:00,
2013-06-15 18:52:00,78.6,56.7,30.01,NW,311,2.0,4.0,47,0.00,,,0.00,meteohub,2013-06-15 22:52:00,
2013-06-15 18:57:00,78.6,57.2,30.01,WNW,301,1.0,4.0,48,0.00,,,0.00,meteohub,2013-06-15 22:57:00,
2013-06-15 19:02:00,78.4,55.9,30.01,NW,322,0.0,4.0,46,0.00,,,0.00,meteohub,2013-06-15 23:02:00,
2013-06-15 19:07:00,78.3,59.2,30.01,NW,318,0.0,4.0,52,0.00,,,0.00,meteohub,2013-06-15 23:07:00,
2013-06-15 19:12:00,78.3,58.1,30.01,NW,306,1.0,4.0,50,0.00,,,0.00,meteohub,2013-06-15 23:12:00,
2013-06-15 19:17:00,78.1,58.5,30.01,NW,306,0.0,4.0,51,0.00,,,0.00,meteohub,2013-06-15 23:17:00,
2013-06-15 19:22:00,77.7,58.6,30.01,NW,306,0.0,2.0,52,0.00,,,0.00,meteohub,2013-06-15 23:22:00,
2013-06-15 19:27:00,77.5,57.4,30.02,WNW,302,0.0,2.0,50,0.00,,,0.00,meteohub,2013-06-15 23:27:00,
2013-06-15 19:32:00,77.4,56.7,30.01,WNW,302,0.0,2.0,49,0.00,,,0.00,meteohub,2013-06-15 23:32:00,
2013-06-15 19:37:00,77.2,57.7,30.02,WNW,302,0.0,2.0,51,0.00,,,0.00,meteohub,2013-06-15 23:37:00,
2013-06-15 19:42:00,76.8,56.8,30.02,WNW,302,0.0,1.0,50,0.00,,,0.00,meteohub,2013-06-15 23:42:00,
2013-06-15 19:47:00,76.6,57.7,30.01,WNW,286,0.0,1.0,52,0.00,,,0.00,meteohub,2013-06-15 23:47:00,
2013-06-15 19:52:00,76.6,57.2,30.01,WNW,286,0.0,1.0,51,0.00,,,0.00,meteohub,2013-06-15 23:52:00,
2013-06-15 19:57:00,76.5,57.0,30.01,WNW,286,0.0,1.0,51,0.00,,,0.00,meteohub,2013-06-15 23:57:00,
2013-06-15 20:02:00,76.3,57.9,30.02,WNW,286,0.0,1.0,53,0.00,,,0.00,meteohub,2013-06-16 00:02:00,
2013-06-15 20:07:00,75.9,58.1,30.02,WNW,286,0.0,0.0,54,0.00,,,0.00,meteohub,2013-06-16 00:07:00,
2013-06-15 20:12:00,75.7,56.8,30.02,WNW,286,0.0,0.0,52,0.00,,,0.00,meteohub,2013-06-16 00:12:00,
2013-06-15 20:17:00,75.4,56.5,30.02,WNW,286,0.0,0.0,52,0.00,,,0.00,meteohub,2013-06-16 00:17:00,
2013-06-15 20:22:00,75.0,56.7,30.02,WNW,286,0.0,0.0,53,0.00,,,0.00,meteohub,2013-06-16 00:22:00,
2013-06-15 20:27:00,74.8,56.5,30.02,WNW,286,0.0,0.0,53,0.00,,,0.00,meteohub,2013-06-16 00:27:00,
2013-06-15 20:32:00,74.5,56.3,30.02,WNW,286,0.0,0.0,53,0.00,,,0.00,meteohub,2013-06-16 00:32:00,
2013-06-15 20:37:00,74.1,55.9,30.02,WNW,286,0.0,0.0,53,0.00,,,0.00,meteohub,2013-06-16 00:37:00,
2013-06-15 20:42:00,73.8,56.1,30.02,WNW,286,0.0,0.0,54,0.00,,,0.00,meteohub,2013-06-16 00:42:00,
2013-06-15 20:47:00,73.4,55.2,30.02,WNW,286,0.0,0.0,53,0.00,,,0.00,meteohub,2013-06-16 00:47:00,
2013-06-15 20:52:00,73.2,55.6,30.02,WNW,286,0.0,0.0,54,0.00,,,0.00,meteohub,2013-06-16 00:52:00,
2013-06-15 20:57:00,72.9,55.8,30.02,WNW,286,0.0,0.0,55,0.00,,,0.00,meteohub,2013-06-16 00:57:00,
2013-06-15 21:02:00,72.7,56.1,30.02,WNW,286,0.0,0.0,56,0.00,,,0.00,meteohub,2013-06-16 01:02:00,
2013-06-15 21:07:00,72.5,56.5,30.02,WNW,286,0.0,0.0,57,0.00,,,0.00,meteohub,2013-06-16 01:07:00,
2013-06-15 21:12:00,72.1,56.1,30.02,WNW,286,0.0,0.0,57,0.00,,,0.00,meteohub,2013-06-16 01:12:00,
2013-06-15 21:17:00,72.0,55.9,30.02,WNW,286,0.0,0.0,57,0.00,,,0.00,meteohub,2013-06-16 01:17:00,
2013-06-15 21:22:00,71.4,55.9,30.02,WNW,286,0.0,0.0,58,0.00,,,0.00,meteohub,2013-06-16 01:22:00,
2013-06-15 21:27:00,71.2,56.1,30.02,WNW,286,0.0,0.0,59,0.00,,,0.00,meteohub,2013-06-16 01:27:00,
2013-06-15 21:32:00,70.9,55.8,30.03,WNW,286,0.0,0.0,59,0.00,,,0.00,meteohub,2013-06-16 01:32:00,
2013-06-15 21:37:00,70.5,56.5,30.03,WNW,286,0.0,0.0,61,0.00,,,0.00,meteohub,2013-06-16 01:37:00,
2013-06-15 21:42:00,70.3,55.8,30.03,WNW,286,0.0,0.0,60,0.00,,,0.00,meteohub,2013-06-16 01:42:00,
2013-06-15 21:47:00,70.2,55.2,30.03,WNW,286,0.0,0.0,59,0.00,,,0.00,meteohub,2013-06-16 01:47:00,
2013-06-15 21:52:00,70.0,55.9,30.03,WNW,286,0.0,0.0,61,0.00,,,0.00,meteohub,2013-06-16 01:52:00,
2013-06-15 21:57:00,69.6,55.0,30.03,WNW,286,0.0,0.0,60,0.00,,,0.00,meteohub,2013-06-16 01:57:00,
2013-06-15 22:02:00,69.4,55.9,30.03,WNW,286,0.0,0.0,62,0.00,,,0.00,meteohub,2013-06-16 02:02:00,
2013-06-15 22:07:00,69.3,55.8,30.03,WNW,286,0.0,0.0,62,0.00,,,0.00,meteohub,2013-06-16 02:07:00,
2013-06-15 22:12:00,68.9,55.8,30.03,WNW,286,0.0,0.0,63,0.00,,,0.00,meteohub,2013-06-16 02:12:00,
2013-06-15 22:17:00,68.5,56.3,30.03,WNW,286,0.0,0.0,65,0.00,,,0.00,meteohub,2013-06-16 02:17:00,
2013-06-15 22:22:00,68.4,55.8,30.03,WNW,286,0.0,0.0,64,0.00,,,0.00,meteohub,2013-06-16 02:22:00,
2013-06-15 22:27:00,68.2,55.9,30.03,WNW,286,0.0,0.0,65,0.00,,,0.00,meteohub,2013-06-16 02:27:00,
2013-06-15 22:32:00,68.0,55.8,30.03,WNW,286,0.0,0.0,65,0.00,,,0.00,meteohub,2013-06-16 02:32:00,
2013-06-15 22:37:00,67.8,55.6,30.03,WNW,286,0.0,0.0,65,0.00,,,0.00,meteohub,2013-06-16 02:37:00,
2013-06-15 22:42:00,67.6,55.9,30.03,WNW,286,0.0,0.0,66,0.00,,,0.00,meteohub,2013-06-16 02:42:00,
2013-06-15 22:47:00,67.5,56.1,30.03,WNW,286,0.0,0.0,67,0.00,,,0.00,meteohub,2013-06-16 02:47:00,
2013-06-15 22:52:00,67.5,56.1,30.03,WNW,286,0.0,0.0,67,0.00,,,0.00,meteohub,2013-06-16 02:52:00,
2013-06-15 22:57:00,67.1,56.1,30.03,WNW,286,0.0,0.0,68,0.00,,,0.00,meteohub,2013-06-16 02:57:00,
2013-06-15 23:02:00,66.9,56.5,30.03,WNW,286,0.0,0.0,69,0.00,,,0.00,meteohub,2013-06-16 03:02:00,
2013-06-15 23:07:00,66.7,56.3,30.03,WNW,286,0.0,0.0,69,0.00,,,0.00,meteohub,2013-06-16 03:07:00,
2013-06-15 23:12:00,66.7,57.0,30.03,WNW,286,0.0,0.0,71,0.00,,,0.00,meteohub,2013-06-16 03:12:00,
2013-06-15 23:17:00,66.6,56.8,30.03,WNW,286,0.0,0.0,71,0.00,,,0.00,meteohub,2013-06-16 03:17:00,
2013-06-15 23:22:00,66.4,56.7,30.03,WNW,286,0.0,0.0,71,0.00,,,0.00,meteohub,2013-06-16 03:22:00,
2013-06-15 23:27:00,66.2,56.8,30.03,WNW,286,0.0,0.0,72,0.00,,,0.00,meteohub,2013-06-16 03:27:00,
2013-06-15 23:32:00,66.0,57.2,30.03,WNW,286,0.0,0.0,73,0.00,,,0.00,meteohub,2013-06-16 03:32:00,
2013-06-15 23:37:00,65.8,57.0,30.03,WNW,286,0.0,0.0,73,0.00,,,0.00,meteohub,2013-06-16 03:37:00,
2013-06-15 23:42:00,65.7,57.2,30.03,WNW,286,0.0,0.0,74,0.00,,,0.00,meteohub,2013-06-16 03:42:00,
2013-06-15 23:47:00,65.5,57.0,30.03,WNW,286,0.0,0.0,74,0.00,,,0.00,meteohub,2013-06-16 03:47:00,
2013-06-15 23:52:00,65.3,57.2,30.03,WNW,286,0.0,0.0,75,0.00,,,0.00,meteohub,2013-06-16 03:52:00,
2013-06-15 23:57:00,65.1,56.7,30.03,WNW,286,0.0,0.0,74,0.00,,,0.00,meteohub,2013-06-16 03:57:00,